Total_Precipitation_Accumulation
1.37 1.20 1.97 2.11 1.91 1.67 1.59 1.54 1.57 1.60 1.60 1.63 1.45 1.22 1.07 1.01 0.96 0.89 0.76 0.68 0.75 0.76 0.74 0.70 0.69 0.69 0.65 0.65 0.64 0.66 0.74 0.83 0.87 0.90 0.95 0.99 0.92 0.94 1.20 1.53 1.69 1.97 1.59
1.11 1.19 2.04 2.20 1.93 1.59 1.47 1.48 1.58 1.59 1.62 1.55 1.46 1.27 1.13 1.00 0.93 0.83 0.67 0.59 0.62 0.66 0.65 0.68 0.73 0.75 0.77 0.79 0.84 0.88 0.85 0.81 0.93 1.03 1.18 1.22 1.11 1.07 1.09 1.38 1.53 1.80 1.62
1.15 1.24 1.80 2.29 2.03 1.73 1.53 1.53 1.61 1.57 1.65 1.53 1.47 1.29 1.14 0.98 0.92 0.84 0.71 0.66 0.70 0.64 0.61 0.65 0.79 0.81 0.86 0.88 0.93 0.99 0.95 0.90 1.01 1.21 1.59 2.20 1.64 1.22 1.21 1.32 1.39 1.34 1.47
1.05 1.12 1.57 2.32 2.02 1.83 1.72 1.72 1.64 1.62 1.70 1.52 1.41 1.24 1.11 1.02 0.97 0.96 1.02 1.04 0.89 0.72 0.67 0.66 0.79 0.82 0.80 0.86 0.95 0.94 0.90 0.94 1.14 1.26 1.67 2.25 2.06 1.38 1.35 1.45 1.49 1.30 1.35
1.08 1.19 1.82 2.30 1.98 1.79 1.75 1.76 1.67 1.72 1.69 1.52 1.33 1.12 1.04 1.06 1.17 1.24 1.23 1.10 0.88 0.74 0.70 0.71 0.78 0.83 0.79 0.76 0.87 0.92 0.94 1.02 1.16 1.19 1.62 2.14 2.35 1.79 1.42 1.43 1.49 1.36 1.37
1.31 1.29 1.79 2.21 1.99 1.80 1.76 1.71 1.68 1.68 1.69 1.59 1.33 1.13 1.06 1.08 1.08 1.12 1.15 1.06 0.88 0.76 0.68 0.74 0.81 0.83 0.81 0.80 0.84 0.91 0.94 1.02 0.99 1.21 1.65 1.99 2.26 1.79 1.34 1.33 1.49 1.45 1.46
1.26 1.31 1.62 2.03 1.89 1.67 1.62 1.67 1.73 1.70 1.68 1.62 1.36 1.23 1.21 1.16 1.03 1.04 1.04 0.98 0.82 0.72 0.68 0.74 0.80 0.84 0.81 0.83 0.81 0.81 0.89 0.83 0.75 1.10 1.48 1.83 1.82 1.58 1.35 1.40 1.57 1.56 1.63
1.24 1.22 1.40 1.79 1.86 1.67 1.59 1.56 1.62 1.64 1.66 1.59 1.30 1.19 1.15 1.14 1.07 1.01 0.99 0.95 0.82 0.80 0.79 0.76 0.77 0.83 0.85 0.83 0.81 0.81 0.82 0.70 0.60 0.86 1.19 1.59 1.70 1.62 1.47 1.46 1.58 1.67 1.81
1.37 1.31 1.35 1.55 1.70 1.90 1.88 1.75 1.67 1.60 1.59 1.55 1.32 1.21 1.15 1.03 0.90 0.86 0.85 0.83 0.82 0.88 0.84 0.77 0.74 0.74 0.78 0.82 0.83 0.86 0.82 0.70 0.64 0.83 0.86 1.30 1.59 1.66 1.53 1.51 1.56 1.64 1.83
1.41 1.34 1.29 1.38 1.43 1.57 1.73 1.85 1.82 1.73 1.66 1.60 1.39 1.28 1.20 0.99 0.84 0.81 0.74 0.75 0.79 0.92 0.99 0.90 0.82 0.81 0.82 0.88 0.89 0.87 0.86 0.68 0.62 0.69 0.89 1.06 1.52 1.61 1.50 1.51 1.53 1.56 1.70
1.29 1.19 1.12 1.16 1.28 1.42 1.65 1.81 1.92 1.84 1.79 1.65 1.44 1.35 1.22 0.91 0.78 0.78 0.72 0.88 0.88 0.94 1.01 1.02 1.04 1.01 0.93 0.88 0.94 0.87 0.69 0.63 0.76 0.81 0.89 1.06 1.56 1.68 1.61 1.54 1.56 1.54 1.51
1.28 1.13 0.95 0.96 1.07 1.18 1.31 1.74 1.77 1.53 1.47 1.35 1.48 1.38 1.20 1.11 0.95 0.67 0.72 0.94 1.08 1.11 1.07 1.03 1.13 1.00 0.80 0.67 0.73 0.68 0.51 0.59 0.71 0.76 0.78 1.22 1.66 1.68 1.51 1.48 1.55 1.47 1.38
1.15 1.06 0.93 0.85 0.84 0.83 0.93 1.20 1.37 1.41 1.46 1.35 1.29 1.23 1.20 1.07 0.87 0.72 0.75 0.76 0.81 0.87 0.82 0.84 0.83 0.70 0.63 0.65 0.67 0.55 0.49 0.58 0.67 0.76 0.87 1.39 1.78 1.76 1.50 1.39 1.47 1.43 1.39
0.95 0.96 0.90 0.73 0.66 0.60 0.63 0.71 0.84 1.02 1.16 1.18 1.01 0.92 0.98 1.00 0.89 0.74 0.73 0.72 0.72 0.76 0.88 0.91 0.91 0.83 0.77 0.74 0.70 0.71 0.69 0.72 0.74 0.83 1.03 1.33 1.79 1.81 1.66 1.55 1.56 1.57 1.53
0.86 0.88 0.81 0.66 0.65 0.60 0.60 0.60 0.58 0.79 0.98 1.09 1.10 0.94 0.88 0.89 0.88 0.80 0.67 0.68 0.64 0.68 0.76 0.81 0.85 0.89 0.95 0.91 0.88 0.92 0.94 0.90 0.82 0.80 0.98 1.26 1.74 2.12 2.11 1.96 1.77 1.75 1.72
0.70 0.80 0.77 0.73 0.75 0.69 0.59 0.58 0.58 0.67 0.80 0.85 1.01 1.02 0.94 0.85 0.79 0.81 0.76 0.76 0.77 0.76 0.76 0.76 0.75 0.89 0.96 0.99 0.97 0.96 0.94 0.84 0.83 0.91 1.07 1.14 1.22 1.59 2.16 2.27 2.18 2.06 1.95
0.64 0.66 0.64 0.65 0.72 0.73 0.70 0.66 0.64 0.74 0.78 0.82 0.87 0.87 0.91 0.81 0.73 0.78 0.82 0.83 0.83 0.84 0.83 0.86 0.87 0.96 0.97 1.05 1.09 0.96 0.90 0.87 0.83 0.89 0.98 1.08 0.90 0.94 1.45 2.06 2.31 2.19 2.14
0.57 0.56 0.59 0.55 0.64 0.75 0.80 0.81 0.83 0.86 0.89 0.95 0.91 0.85 0.82 0.77 0.74 0.82 0.85 0.90 0.95 0.86 0.84 0.94 1.00 1.09 1.09 1.16 1.19 1.02 0.86 0.94 0.89 0.89 1.02 1.05 1.03 0.95 1.10 1.34 1.63 1.84 2.17
0.56 0.56 0.61 0.60 0.66 0.74 0.79 0.88 0.96 1.03 1.09 1.22 1.17 1.12 1.04 0.92 0.93 1.00 1.04 1.07 1.09 1.10 1.03 0.94 0.99 1.12 1.24 1.28 1.15 1.06 0.95 0.96 0.98 0.95 1.12 1.15 1.13 1.13 1.19 1.11 1.13 1.29 1.64
0.62 0.58 0.63 0.71 0.76 0.87 1.02 1.19 1.38 1.47 1.63 1.82 1.75 1.61 1.40 1.23 1.19 1.31 1.30 1.23 1.30 1.40 1.44 1.25 1.30 1.28 1.25 1.34 1.19 1.12 1.10 1.04 1.04 1.10 1.16 1.28 1.41 1.27 1.27 1.20 1.10 0.92 1.14
0.60 0.58 0.58 0.64 0.71 0.83 1.03 1.32 1.71 1.93 2.06 2.05 2.06 1.96 1.74 1.52 1.53 1.71 1.69 1.66 1.66 1.66 1.63 1.58 1.73 1.68 1.43 1.35 1.55 1.54 1.38 1.21 1.16 1.15 1.21 1.44 1.56 1.48 1.50 1.43 1.30 1.13 1.01
0.44 0.47 0.58 0.59 0.66 0.79 1.06 1.33 1.64 1.98 2.05 2.06 2.06 2.02 1.89 1.75 1.76 1.80 2.01 2.11 2.09 2.21 2.19 2.01 2.16 2.20 1.82 1.58 1.86 2.19 1.91 1.68 1.27 1.18 1.31 1.37 1.48 1.56 1.61 1.48 1.33 1.22 1.17
0.32 0.30 0.43 0.52 0.66 0.93 1.26 1.53 1.69 1.96 2.04 2.08 2.04 2.05 2.07 2.01 1.91 1.93 2.05 2.22 2.24 2.32 2.44 2.52 2.46 2.57 2.38 1.98 1.85 2.15 2.10 1.95 1.74 1.38 1.33 1.41 1.58 1.63 1.67 1.65 1.48 1.24 1.21
0.26 0.24 0.31 0.40 0.63 1.01 1.35 1.57 1.81 2.17 2.22 2.13 2.14 2.12 2.12 2.14 2.10 2.18 2.20 2.33 2.34 2.36 2.47 2.57 2.53 2.68 2.77 2.38 2.07 1.86 1.71 1.72 1.86 1.68 1.47 1.43 1.59 1.62 1.62 1.64 1.67 1.50 1.33
0.31 0.31 0.36 0.49 0.71 1.01 1.24 1.50 1.86 2.11 2.18 2.27 2.17 2.12 2.12 2.19 2.21 2.25 2.32 2.50 2.48 2.46 2.45 2.65 2.70 2.80 2.73 2.65 2.50 2.32 2.16 1.92 1.58 1.70 1.77 1.64 1.54 1.44 1.49 1.62 1.77 1.72 1.56
0.37 0.42 0.52 0.68 0.81 1.03 1.24 1.48 1.67 1.90 2.02 2.12 2.18 2.10 2.08 2.14 2.24 2.14 2.06 2.21 2.28 2.32 2.32 2.50 2.67 2.81 2.79 2.81 2.73 2.44 2.39 2.26 1.91 1.85 1.75 1.66 1.68 1.49 1.42 1.50 1.57 1.57 1.58